Ostrava, Czech Republic

9:12 PM CEST on August 30, 2016 (GMT +0200)
Mosnov

Weather History for LKMT - January, 2013

Change the Weather History Date:

Saturday, January 19, 2013

  Actual Average (EPKT) Record (EPKT)
Temperature  
Mean Temperature 20 °F -  
Max Temperature 20 °F 36 °F 50 °F (2008)
Min Temperature 19 °F 24 °F 6 °F (2016)
Degree Days  
Heating Degree Days 46    
Moisture  
Dew Point 18 °F    
Average Humidity 90    
Maximum Humidity 93    
Minimum Humidity 80    
Precipitation  
Precipitation 0.00 in 0.04 in - ()
Sea Level Pressure  
Sea Level Pressure 29.57 in    
Wind  
Wind Speed 11 mph ()    
Max Wind Speed 17 mph    
Max Gust Speed -    
Visibility 2.0 miles    
Events Snow    
Averages and records for this station are not official NWS values.
T = Trace of Precipitation, MM = Missing Value Source: Averaged Metar Reports

Daily Weather History Graph

Daily Weather History Graph

Search for Another Location

Airport or City:

Trip Planner

Search our weather history database for the weather conditions in past years. The results will help you decide how hot, cold, wet, or windy it might be!

Date:

Astronomy

Jan. 19, 2013 Rise Set
Actual Time 7:35 AM CET 4:21 PM CET
Civil Twilight 6:59 AM CET 4:57 PM CET
Nautical Twilight 6:19 AM CET 5:37 PM CET
Astronomical Twilight 5:41 AM CET 6:15 PM CET
Moon 10:46 AM CET (1/19) 12:41 AM CET (1/19)
Length of Visible Light 9h 58m
Length of Day
8h 46m
First Quarter, 54% of the Moon is Illuminated
Jan 19
First Quarter
Jan 27
Full
Feb 3
Last Quarter
Feb 10
New
Feb 17
First Quarter

Hourly Weather History & Observations

Time (CET) Temp. Windchill Dew Point Humidity Pressure Visibility Wind Dir Wind Speed Gust Speed Precip Events Conditions
12:00 AM 21.2 °F 7.8 °F 19.4 °F 93% 29.62 in 1.2 mi NNE 15.0 mph - N/A   Overcast
12:30 AM 21.2 °F 7.8 °F 19.4 °F 93% 29.62 in 1.2 mi NNE 15.0 mph - N/A Snow Light Snow
1:00 AM 21 °F - 18 °F 86% 29.70 in 1 mi NNE 15.7 mph - - Snow Light Snow
1:00 AM 21.2 °F 7.8 °F 19.4 °F 93% 29.62 in 1.2 mi NNE 15.0 mph - N/A Snow Light Snow
1:30 AM 21.2 °F 6.8 °F 19.4 °F 93% 29.59 in 1.2 mi NNE 17.3 mph - N/A Snow Light Snow
2:00 AM 21.2 °F 7.8 °F 19.4 °F 93% 29.59 in 1.4 mi NNE 15.0 mph - N/A Snow Light Snow
2:30 AM 21.2 °F 8.3 °F 19.4 °F 93% 29.59 in 1.6 mi NNE 13.8 mph - N/A Snow Light Snow
3:00 AM 21.2 °F 7.8 °F 19.4 °F 93% 29.59 in 1.6 mi NNE 15.0 mph - N/A Snow Light Snow
3:30 AM 21.2 °F 7.8 °F 17.6 °F 86% 29.59 in 1.6 mi NNE 15.0 mph - N/A   Overcast
4:00 AM 21.2 °F 7.3 °F 17.6 °F 86% 29.59 in 1.6 mi NNE 16.1 mph - N/A   Overcast
4:30 AM 21.2 °F 7.8 °F 17.6 °F 86% 29.59 in 1.6 mi NNE 15.0 mph - N/A Snow Light Snow
5:00 AM 21.2 °F 8.3 °F 17.6 °F 86% 29.56 in 1.9 mi NNE 13.8 mph - N/A   Overcast
5:30 AM 21.2 °F 8.3 °F 17.6 °F 86% 29.56 in 1.9 mi NNE 13.8 mph - N/A   Overcast
6:00 AM - - - N/A% 29.56 in - NNE 13.8 mph - N/A   Overcast
6:30 AM 21.2 °F 8.9 °F 17.6 °F 86% 29.56 in 2.5 mi NNE 12.7 mph - N/A   Overcast
7:00 AM 19.4 °F 6.0 °F 17.6 °F 93% 29.56 in 2.5 mi NNE 13.8 mph - N/A   Overcast
7:30 AM 19.4 °F 6.6 °F 17.6 °F 93% 29.56 in 2.5 mi NNE 12.7 mph - N/A   Overcast
8:00 AM 19.4 °F 6.6 °F 17.6 °F 93% 29.56 in 2.5 mi NNE 12.7 mph - N/A   Overcast
8:30 AM 19.4 °F 7.2 °F 17.6 °F 93% 29.56 in 3.1 mi NNE 11.5 mph - N/A   Overcast
9:00 AM 19.4 °F 8.6 °F 17.6 °F 93% 29.56 in 3.1 mi North 9.2 mph - N/A   Overcast
9:30 AM 19.4 °F 8.6 °F 15.8 °F 86% 29.56 in 3.1 mi North 9.2 mph - N/A   Overcast
10:00 AM 19.4 °F 7.9 °F 17.6 °F 93% 29.56 in 3.1 mi North 10.4 mph - N/A   Overcast
10:30 AM 19.4 °F 7.2 °F 17.6 °F 93% 29.53 in 2.8 mi North 11.5 mph - N/A   Overcast
11:00 AM 19.4 °F 8.6 °F 17.6 °F 93% 29.53 in 2.5 mi North 9.2 mph - N/A   Overcast
11:30 AM 19.4 °F 7.2 °F 17.6 °F 93% 29.53 in 2.5 mi North 11.5 mph - N/A   Overcast
12:00 PM 21.2 °F 9.5 °F 17.6 °F 86% 29.53 in 2.2 mi North 11.5 mph - N/A Snow Light Snow Grains
12:30 PM 21.2 °F 10.9 °F 17.6 °F 86% 29.53 in 2.2 mi North 9.2 mph - N/A   Overcast
1:00 PM 20 °F - 17 °F 80% 29.62 in 2 mi North 8.9 mph - - Snow Snow Grains
1:00 PM 21.2 °F 11.7 °F 17.6 °F 86% 29.53 in 2.2 mi North 8.1 mph - N/A Snow Light Snow Grains
1:30 PM 21.2 °F 10.9 °F 17.6 °F 86% 29.53 in 1.9 mi NNE 9.2 mph - N/A   Overcast
2:00 PM 19.4 °F 9.5 °F 17.6 °F 93% 29.53 in 1.6 mi North 8.1 mph - N/A   Overcast
2:30 PM 21.2 °F 11.7 °F 17.6 °F 86% 29.53 in 1.6 mi North 8.1 mph - N/A   Overcast
3:00 PM 21.2 °F 12.6 °F 17.6 °F 86% 29.53 in 1.6 mi North 6.9 mph - N/A   Mostly Cloudy
3:30 PM 21.2 °F 12.6 °F 17.6 °F 86% 29.53 in 1.6 mi North 6.9 mph - N/A   Overcast
4:00 PM 19.4 °F 10.4 °F 17.6 °F 93% 29.53 in 1.6 mi North 6.9 mph - N/A   Overcast
4:30 PM 19.4 °F 10.4 °F 17.6 °F 93% 29.53 in 1.6 mi NNE 6.9 mph - N/A   Overcast
5:00 PM 19.4 °F 11.5 °F 17.6 °F 93% 29.56 in 1.6 mi North 5.8 mph - N/A   Overcast
5:30 PM 19.4 °F 11.5 °F 17.6 °F 93% 29.56 in 1.6 mi North 5.8 mph - N/A   Overcast
6:00 PM 19.4 °F 11.5 °F 17.6 °F 93% 29.56 in 1.6 mi North 5.8 mph - N/A   Mostly Cloudy
6:30 PM 19.4 °F 11.5 °F 17.6 °F 93% 29.56 in 2.2 mi North 5.8 mph - N/A   Overcast
7:00 PM 20 °F - 17 °F 82% 29.65 in 2 mi NNE 6.7 mph - -   Mist
7:00 PM 19.4 °F 10.4 °F 17.6 °F 93% 29.56 in - NNE 6.9 mph - N/A   Overcast
7:30 PM 19.4 °F 11.5 °F 17.6 °F 93% 29.56 in - NNE 5.8 mph - N/A   Overcast
8:00 PM 19.4 °F 11.5 °F 17.6 °F 93% 29.59 in - North 5.8 mph - N/A   Overcast
8:30 PM 19.4 °F 10.4 °F 17.6 °F 93% 29.59 in 2.2 mi North 6.9 mph - N/A   Overcast
9:00 PM 19.4 °F 12.8 °F 17.6 °F 93% 29.59 in - NNE 4.6 mph - N/A   Overcast
9:30 PM 19.4 °F 14.3 °F 17.6 °F 93% 29.59 in 2.2 mi NNE 3.5 mph - N/A   Overcast
10:00 PM 19.4 °F 12.8 °F 17.6 °F 93% 29.59 in - North 4.6 mph - N/A   Overcast
10:30 PM 19.4 °F 11.5 °F 17.6 °F 93% 29.56 in - NNE 5.8 mph - N/A   Overcast
11:00 PM 19.4 °F 14.3 °F 17.6 °F 93% 29.59 in 2.5 mi NNE 3.5 mph - N/A   Overcast
11:30 PM 19.4 °F 12.8 °F 17.6 °F 93% 29.59 in 2.5 mi NNE 4.6 mph - N/A   Overcast